SAS69B EPKK-EKCH

Flight info

Callsign SAS69B
Flight time 1h 23m
Altitude 36000
Route NAVUR DCT NUBLI N133 POLON DCT BABEN DCT GOSOT DCT ROE M743 TIDVU
Aircraft A320/M-SDE3FGHIJ1RWXYZ/ALB1

Departure

Time 2026-04-22 20:13
Airport Kraków John Paul II International Airport (EPKK)

Arrival

Time 2026-04-22 21:36
Airport Copenhagen Kastrup Airport (EKCH)
Time Latitude Longitude Altitude Speed Heading
2026-04-22 19:49 50.07358 19.80243 800 ft 0 kts 168°
2026-04-22 20:06 50.07375 19.80237 800 ft 3 kts 168°
2026-04-22 20:06 50.07396 19.80230 800 ft 2 kts 168°
2026-04-22 20:07 50.07414 19.80222 800 ft 3 kts 137°
2026-04-22 20:07 50.07422 19.80197 800 ft 3 kts 83°
2026-04-22 20:07 50.07419 19.80168 800 ft 1 kts 77°
2026-04-22 20:07 50.07419 19.80167 800 ft 0 kts 77°
2026-04-22 20:09 50.07420 19.80178 800 ft 3 kts 77°
2026-04-22 20:10 50.07429 19.80239 800 ft 7 kts 77°
2026-04-22 20:10 50.07442 19.80329 800 ft 10 kts 75°
2026-04-22 20:10 50.07500 19.80391 800 ft 12 kts 17°
2026-04-22 20:10 50.07590 19.80420 800 ft 15 kts 354°
2026-04-22 20:11 50.07700 19.80385 800 ft 17 kts 348°
2026-04-22 20:11 50.07828 19.80342 800 ft 20 kts 347°
2026-04-22 20:11 50.07975 19.80291 800 ft 23 kts 343°
2026-04-22 20:11 50.07996 19.80087 801 ft 20 kts 259°
2026-04-22 20:12 50.07987 19.80023 801 ft 2 kts 259°
2026-04-22 20:12 50.07982 19.79976 801 ft 8 kts 258°
2026-04-22 20:12 50.07955 19.79781 800 ft 52 kts 258°
2026-04-22 20:12 50.07768 19.78448 802 ft 131 kts 257°
2026-04-22 20:13 50.07546 19.76859 978 ft 157 kts 257°
2026-04-22 20:13 50.07311 19.75195 1509 ft 167 kts 257°
2026-04-22 20:13 50.07045 19.73303 1825 ft 192 kts 259°
2026-04-22 20:13 50.06746 19.71149 2223 ft 216 kts 260°
2026-04-22 20:14 50.06420 19.68799 2915 ft 226 kts 261°
2026-04-22 20:14 50.06110 19.66361 3716 ft 232 kts 269°
2026-04-22 20:14 50.06472 19.63983 4505 ft 229 kts 307°
2026-04-22 20:14 50.07735 19.62419 5089 ft 242 kts 339°
2026-04-22 20:15 50.09377 19.61710 5773 ft 247 kts 349°
2026-04-22 20:15 50.11075 19.61291 5960 ft 246 kts 353°
2026-04-22 20:15 50.12773 19.61414 6004 ft 246 kts 10°
2026-04-22 20:15 50.14397 19.62279 6153 ft 252 kts 24°
2026-04-22 20:16 50.15877 19.63779 7115 ft 255 kts 36°
2026-04-22 20:16 50.17228 19.65598 7871 ft 260 kts 37°
2026-04-22 20:16 50.18606 19.67448 8104 ft 262 kts 37°
2026-04-22 20:16 50.19991 19.69304 8158 ft 262 kts 37°
2026-04-22 20:17 50.21372 19.71167 8162 ft 262 kts 37°
2026-04-22 20:17 50.22749 19.73032 8163 ft 262 kts 37°
2026-04-22 20:17 50.24127 19.74899 8164 ft 262 kts 37°
2026-04-22 20:17 50.25504 19.76770 8160 ft 262 kts 37°
2026-04-22 20:18 50.26882 19.78645 8157 ft 263 kts 37°
2026-04-22 20:18 50.28257 19.80520 8160 ft 262 kts 37°
2026-04-22 20:18 50.29631 19.82398 8156 ft 263 kts 38°
2026-04-22 20:18 50.31006 19.84278 8153 ft 263 kts 38°
2026-04-22 20:19 50.32404 19.86187 8596 ft 268 kts 38°
2026-04-22 20:19 50.33825 19.88082 9531 ft 269 kts 33°
2026-04-22 20:19 50.35467 19.89503 10339 ft 272 kts 19°
2026-04-22 20:19 50.37349 19.90216 10750 ft 290 kts
2026-04-22 20:20 50.39407 19.90279 11059 ft 307 kts
2026-04-22 20:20 50.41563 19.90290 11132 ft 311 kts
2026-04-22 20:20 50.43733 19.90301 11137 ft 312 kts
2026-04-22 20:20 50.45903 19.90318 11136 ft 312 kts
2026-04-22 20:21 50.48075 19.90341 11171 ft 314 kts
2026-04-22 20:21 50.50277 19.90367 11831 ft 317 kts
2026-04-22 20:21 50.52489 19.90397 12081 ft 316 kts
2026-04-22 20:21 50.54685 19.90435 12132 ft 316 kts
2026-04-22 20:22 50.56881 19.90473 12132 ft 315 kts
2026-04-22 20:22 50.59072 19.90508 12132 ft 315 kts
2026-04-22 20:22 50.61264 19.90544 12130 ft 315 kts
2026-04-22 20:22 50.63452 19.90580 12125 ft 315 kts
2026-04-22 20:23 50.65652 19.90616 12276 ft 320 kts
2026-04-22 20:23 50.67877 19.90656 13103 ft 319 kts
2026-04-22 20:23 50.70108 19.90700 13911 ft 322 kts
2026-04-22 20:23 50.72357 19.90749 14593 ft 324 kts
2026-04-22 20:24 50.74622 19.90800 15275 ft 326 kts
2026-04-22 20:24 50.76897 19.90850 15951 ft 328 kts
2026-04-22 20:24 50.79192 19.90894 16613 ft 331 kts
2026-04-22 20:24 50.81502 19.90932 17295 ft 333 kts
2026-04-22 20:25 50.83828 19.90968 17962 ft 335 kts
2026-04-22 20:25 50.86168 19.91007 18599 ft 338 kts
2026-04-22 20:25 50.88530 19.91047 19192 ft 341 kts
2026-04-22 20:25 50.90908 19.91079 19797 ft 343 kts
2026-04-22 20:26 50.93301 19.91096 20410 ft 346 kts
2026-04-22 20:26 50.95723 19.91105 21010 ft 348 kts
2026-04-22 20:26 50.98123 19.91110 21574 ft 351 kts
2026-04-22 20:26 51.00605 19.91116 22152 ft 353 kts
2026-04-22 20:27 51.03042 19.91084 22709 ft 356 kts
2026-04-22 20:27 51.05530 19.90957 23291 ft 359 kts 360°
2026-04-22 20:27 51.08035 19.90770 23823 ft 362 kts 359°
2026-04-22 20:27 51.10566 19.90558 24297 ft 365 kts 360°
2026-04-22 20:28 51.13110 19.90347 24725 ft 368 kts
2026-04-22 20:28 51.15681 19.90145 25156 ft 371 kts
2026-04-22 20:28 51.18264 19.89956 25591 ft 373 kts
2026-04-22 20:28 51.20868 19.89779 26014 ft 376 kts
2026-04-22 20:29 51.23495 19.89605 26439 ft 379 kts
2026-04-22 20:29 51.26139 19.89435 26838 ft 381 kts
2026-04-22 20:29 51.28800 19.89262 27246 ft 384 kts
2026-04-22 20:29 51.31351 19.89093 27575 ft 385 kts
2026-04-22 20:30 51.33805 19.88926 27708 ft 385 kts
2026-04-22 20:30 51.36494 19.88360 28026 ft 395 kts 352°
2026-04-22 20:30 51.38268 19.87550 28269 ft 401 kts 347°
2026-04-22 20:30 51.40924 19.86150 28638 ft 404 kts 348°
2026-04-22 20:31 51.43603 19.84747 28999 ft 407 kts 348°
2026-04-22 20:31 51.46301 19.83339 29358 ft 410 kts 348°
2026-04-22 20:31 51.49025 19.81919 29727 ft 412 kts 348°
2026-04-22 20:31 51.51761 19.80493 30087 ft 415 kts 348°
2026-04-22 20:32 51.54521 19.79051 30399 ft 418 kts 348°
2026-04-22 20:32 51.57292 19.77597 30717 ft 420 kts 348°
2026-04-22 20:32 51.60076 19.76136 31043 ft 422 kts 349°
2026-04-22 20:32 51.62872 19.74667 31357 ft 424 kts 349°
2026-04-22 20:33 51.65681 19.73189 31772 ft 423 kts 349°
2026-04-22 20:33 51.68477 19.71718 32247 ft 422 kts 349°
2026-04-22 20:33 51.71257 19.70251 32714 ft 420 kts 349°
2026-04-22 20:33 51.74029 19.68783 33182 ft 419 kts 350°
2026-04-22 20:34 51.76794 19.67300 33652 ft 419 kts 348°
2026-04-22 20:34 51.79465 19.65304 34102 ft 429 kts 338°
2026-04-22 20:34 51.81940 19.62530 34471 ft 440 kts 328°
2026-04-22 20:34 51.84194 19.59113 34817 ft 445 kts 324°
2026-04-22 20:35 51.86411 19.55631 35150 ft 445 kts 324°
2026-04-22 20:35 51.88630 19.52142 35482 ft 445 kts 323°
2026-04-22 20:35 51.90849 19.48653 35804 ft 444 kts 323°
2026-04-22 20:35 51.93066 19.45171 36041 ft 445 kts 323°
2026-04-22 20:36 51.95291 19.41675 36094 ft 444 kts 323°
2026-04-22 20:36 51.99712 19.34717 36106 ft 443 kts 323°
2026-04-22 20:37 52.04122 19.27731 36111 ft 443 kts 323°
2026-04-22 20:37 52.08533 19.20746 36111 ft 443 kts 323°
2026-04-22 20:38 52.12948 19.13746 36114 ft 443 kts 323°
2026-04-22 20:38 52.17330 19.06762 36118 ft 444 kts 323°
2026-04-22 20:39 52.21766 18.99668 36108 ft 444 kts 323°
2026-04-22 20:39 52.26172 18.92595 36112 ft 444 kts 322°
2026-04-22 20:40 52.30546 18.85556 36116 ft 444 kts 322°
2026-04-22 20:40 52.34952 18.78463 36112 ft 444 kts 322°
2026-04-22 20:41 52.39352 18.71343 36121 ft 445 kts 322°
2026-04-22 20:41 52.43745 18.64204 36118 ft 445 kts 322°
2026-04-22 20:42 52.48136 18.57051 36126 ft 445 kts 322°
2026-04-22 20:42 52.52527 18.49889 36127 ft 445 kts 322°
2026-04-22 20:43 52.56908 18.42707 36134 ft 445 kts 322°
2026-04-22 20:43 52.61290 18.35510 36133 ft 445 kts 322°
2026-04-22 20:44 52.65670 18.28287 36135 ft 445 kts 322°
2026-04-22 20:44 52.70046 18.21055 36134 ft 446 kts 322°
2026-04-22 20:45 52.74420 18.13809 36137 ft 446 kts 322°
2026-04-22 20:45 52.78787 18.06544 36136 ft 446 kts 321°
2026-04-22 20:46 52.85344 17.95624 36128 ft 446 kts 321°
2026-04-22 20:46 52.89706 17.88317 36132 ft 446 kts 321°
2026-04-22 20:47 52.94058 17.80986 36127 ft 446 kts 321°
2026-04-22 20:47 52.98405 17.73654 36133 ft 446 kts 321°
2026-04-22 20:48 53.02761 17.66306 36128 ft 446 kts 321°
2026-04-22 20:48 53.07107 17.58940 36133 ft 446 kts 321°
2026-04-22 20:49 53.11448 17.51556 36141 ft 446 kts 321°
2026-04-22 20:49 53.15785 17.44151 36150 ft 447 kts 321°
2026-04-22 20:50 53.20122 17.36734 36157 ft 447 kts 321°
2026-04-22 20:50 53.24426 17.29345 36156 ft 447 kts 321°
2026-04-22 20:51 53.28794 17.21846 36161 ft 447 kts 321°
2026-04-22 20:51 53.33117 17.14378 36162 ft 447 kts 321°
2026-04-22 20:52 53.37443 17.06867 36168 ft 448 kts 321°
2026-04-22 20:52 53.41765 16.99348 36170 ft 448 kts 321°
2026-04-22 20:53 53.46079 16.91817 36169 ft 448 kts 321°
2026-04-22 20:53 53.50395 16.84280 36172 ft 448 kts 320°
2026-04-22 20:54 53.54683 16.76758 36178 ft 448 kts 320°
2026-04-22 20:54 53.59018 16.69119 36185 ft 448 kts 320°
2026-04-22 20:55 53.63300 16.61564 36184 ft 448 kts 320°
2026-04-22 20:55 53.67603 16.53954 36186 ft 448 kts 320°
2026-04-22 20:56 53.71893 16.46322 36187 ft 448 kts 320°
2026-04-22 20:56 53.76186 16.38680 36191 ft 448 kts 320°
2026-04-22 20:57 53.80467 16.31033 36189 ft 448 kts 320°
2026-04-22 20:57 53.84744 16.23351 36188 ft 448 kts 320°
2026-04-22 20:58 53.89013 16.15660 36184 ft 448 kts 320°
2026-04-22 20:58 53.93279 16.07953 36195 ft 448 kts 320°
2026-04-22 20:59 53.97541 16.00233 36196 ft 448 kts 320°
2026-04-22 20:59 54.01803 15.92503 36197 ft 448 kts 320°
2026-04-22 21:00 54.06059 15.84758 36197 ft 448 kts 320°
2026-04-22 21:00 54.10304 15.76998 36193 ft 448 kts 320°
2026-04-22 21:01 54.14537 15.69205 36194 ft 448 kts 320°
2026-04-22 21:01 54.18766 15.61410 35911 ft 447 kts 319°
2026-04-22 21:02 54.20877 15.57522 35584 ft 444 kts 319°
2026-04-22 21:02 54.22961 15.53671 35720 ft 442 kts 319°
2026-04-22 21:02 54.25054 15.49804 35973 ft 444 kts 319°
2026-04-22 21:02 54.27159 15.45918 36136 ft 446 kts 320°
2026-04-22 21:03 54.31372 15.38111 36187 ft 446 kts 319°
2026-04-22 21:03 54.35573 15.30264 36187 ft 447 kts 319°
2026-04-22 21:04 54.40101 15.23188 36185 ft 433 kts 334°
2026-04-22 21:04 54.42693 15.20626 36062 ft 429 kts 339°
2026-04-22 21:04 54.45329 15.18221 35804 ft 428 kts 339°
2026-04-22 21:05 54.47959 15.15829 35552 ft 428 kts 339°
2026-04-22 21:05 54.50582 15.13441 35270 ft 423 kts 339°
2026-04-22 21:05 54.53171 15.11074 34818 ft 420 kts 339°
2026-04-22 21:05 54.55744 15.08711 34369 ft 418 kts 338°
2026-04-22 21:06 54.58300 15.06364 33868 ft 415 kts 338°
2026-04-22 21:06 54.60838 15.04032 33419 ft 411 kts 338°
2026-04-22 21:06 54.63348 15.01720 32969 ft 407 kts 338°
2026-04-22 21:06 54.65835 14.99421 32512 ft 404 kts 338°
2026-04-22 21:07 54.68297 14.97142 32064 ft 400 kts 338°
2026-04-22 21:07 54.70743 14.94880 31629 ft 397 kts 337°
2026-04-22 21:07 54.73171 14.92635 31185 ft 394 kts 337°
2026-04-22 21:07 54.75584 14.90397 30756 ft 392 kts 337°
2026-04-22 21:08 54.77980 14.88171 30324 ft 390 kts 337°
2026-04-22 21:08 54.80401 14.86150 29847 ft 383 kts 344°
2026-04-22 21:08 54.82925 14.84876 29432 ft 374 kts 352°
2026-04-22 21:08 54.85460 14.83922 29017 ft 371 kts 352°
2026-04-22 21:09 54.87940 14.82983 28624 ft 368 kts 352°
2026-04-22 21:09 54.90462 14.82027 28226 ft 366 kts 352°
2026-04-22 21:09 54.92909 14.81091 27822 ft 364 kts 352°
2026-04-22 21:09 54.95377 14.80145 27427 ft 362 kts 352°
2026-04-22 21:10 54.97824 14.79212 27032 ft 360 kts 352°
2026-04-22 21:10 55.00269 14.78281 26629 ft 358 kts 352°
2026-04-22 21:10 55.02720 14.77271 26234 ft 358 kts 346°
2026-04-22 21:10 55.05002 14.75473 25819 ft 363 kts 332°
2026-04-22 21:11 55.06991 14.72715 25385 ft 370 kts 318°
2026-04-22 21:11 55.08539 14.69149 24954 ft 378 kts 304°
2026-04-22 21:11 55.09766 14.65005 24472 ft 380 kts 302°
2026-04-22 21:11 55.10946 14.60954 24013 ft 380 kts 302°
2026-04-22 21:12 55.11760 14.58171 23672 ft 380 kts 302°
2026-04-22 21:12 55.13355 14.52720 22993 ft 379 kts 302°
2026-04-22 21:12 55.14549 14.48632 22504 ft 375 kts 302°
2026-04-22 21:12 55.15708 14.44647 22036 ft 360 kts 302°
2026-04-22 21:13 55.16820 14.40809 21585 ft 346 kts 302°
2026-04-22 21:13 55.17545 14.38302 21291 ft 337 kts 302°
2026-04-22 21:13 55.18569 14.34757 20869 ft 326 kts 302°
2026-04-22 21:13 55.19577 14.31277 20454 ft 315 kts 302°
2026-04-22 21:14 55.20553 14.27915 20048 ft 305 kts 302°
2026-04-22 21:14 55.21499 14.24649 19661 ft 296 kts 302°
2026-04-22 21:14 55.22416 14.21479 19284 ft 287 kts 302°
2026-04-22 21:14 55.23304 14.18396 18910 ft 280 kts 302°
2026-04-22 21:15 55.24165 14.15397 18543 ft 272 kts 302°
2026-04-22 21:15 55.25002 14.12479 18158 ft 264 kts 302°
2026-04-22 21:15 55.25813 14.09657 17824 ft 256 kts 302°
2026-04-22 21:15 55.26611 14.06883 17503 ft 253 kts 302°
2026-04-22 21:16 55.27401 14.04138 17187 ft 251 kts 302°
2026-04-22 21:16 55.28188 14.01399 16878 ft 252 kts 302°
2026-04-22 21:16 55.28518 14.00253 16743 ft 251 kts 302°
2026-04-22 21:16 55.29131 13.98449 16935 ft 224 kts 311°
2026-04-22 21:17 55.30025 13.96036 16363 ft 248 kts 303°
2026-04-22 21:17 55.30804 13.93282 15941 ft 260 kts 300°
2026-04-22 21:17 55.31615 13.90190 15567 ft 290 kts 299°
2026-04-22 21:17 55.32462 13.86928 15192 ft 295 kts 299°
2026-04-22 21:18 55.33323 13.83662 14813 ft 294 kts 299°
2026-04-22 21:18 55.34198 13.80425 14438 ft 293 kts 300°
2026-04-22 21:18 55.35087 13.77206 14055 ft 293 kts 300°
2026-04-22 21:18 55.35986 13.73997 13644 ft 292 kts 300°
2026-04-22 21:19 55.36887 13.70806 13270 ft 290 kts 300°
2026-04-22 21:19 55.37783 13.67631 12887 ft 289 kts 300°
2026-04-22 21:19 55.38672 13.64481 12515 ft 287 kts 300°
2026-04-22 21:19 55.39559 13.61339 12129 ft 286 kts 301°
2026-04-22 21:20 55.40440 13.58212 11759 ft 285 kts 301°
2026-04-22 21:20 55.41256 13.55031 11377 ft 287 kts 293°
2026-04-22 21:20 55.41838 13.51676 10998 ft 287 kts 291°
2026-04-22 21:20 55.42418 13.48318 10611 ft 286 kts 291°
2026-04-22 21:21 55.42995 13.44980 10225 ft 285 kts 292°
2026-04-22 21:21 55.43584 13.41588 9413 ft 297 kts 291°
2026-04-22 21:21 55.44194 13.38071 8979 ft 296 kts 291°
2026-04-22 21:21 55.44777 13.34671 8840 ft 284 kts 291°
2026-04-22 21:22 55.45337 13.31380 8583 ft 279 kts 290°
2026-04-22 21:22 55.45586 13.27983 8223 ft 284 kts 273°
2026-04-22 21:22 55.45204 13.24562 8033 ft 285 kts 255°
2026-04-22 21:22 55.44400 13.21426 7913 ft 277 kts 251°
2026-04-22 21:23 55.43599 13.18403 7785 ft 268 kts 251°
2026-04-22 21:23 55.42822 13.15468 7655 ft 261 kts 251°
2026-04-22 21:23 55.42060 13.12578 7527 ft 259 kts 251°
2026-04-22 21:23 55.41303 13.09700 7407 ft 258 kts 251°
2026-04-22 21:24 55.40550 13.06835 7271 ft 258 kts 251°
2026-04-22 21:24 55.39791 13.03979 7149 ft 258 kts 248°
2026-04-22 21:24 55.38767 13.01350 7023 ft 264 kts 233°
2026-04-22 21:24 55.37364 12.99208 6880 ft 270 kts 219°
2026-04-22 21:25 55.35824 12.97349 6731 ft 269 kts 219°
2026-04-22 21:25 55.34287 12.95480 6585 ft 268 kts 220°
2026-04-22 21:25 55.32809 12.93514 6434 ft 262 kts 232°
2026-04-22 21:25 55.31859 12.90957 6308 ft 250 kts 256°
2026-04-22 21:26 55.31563 12.88036 6180 ft 239 kts 278°
2026-04-22 21:26 55.31895 12.85252 6062 ft 230 kts 298°
2026-04-22 21:26 55.32737 12.82906 5953 ft 226 kts 310°
2026-04-22 21:26 55.33700 12.80675 5839 ft 226 kts 310°
2026-04-22 21:27 55.34629 12.78493 5734 ft 226 kts 310°
2026-04-22 21:27 55.35568 12.76286 5616 ft 225 kts 310°
2026-04-22 21:27 55.36528 12.74113 5511 ft 225 kts 311°
2026-04-22 21:27 55.37502 12.71961 5418 ft 225 kts 311°
2026-04-22 21:28 55.38482 12.69804 5174 ft 226 kts 311°
2026-04-22 21:28 55.39448 12.67671 4992 ft 219 kts 311°
2026-04-22 21:28 55.40382 12.65606 4869 ft 213 kts 311°
2026-04-22 21:28 55.41304 12.63567 4761 ft 212 kts 311°
2026-04-22 21:29 55.42185 12.61491 4676 ft 213 kts 302°
2026-04-22 21:29 55.42595 12.58955 4565 ft 221 kts 276°
2026-04-22 21:29 55.42283 12.56259 4450 ft 233 kts 249°
2026-04-22 21:29 55.41249 12.54018 4330 ft 242 kts 226°
2026-04-22 21:30 55.39976 12.52073 4199 ft 242 kts 227°
2026-04-22 21:30 55.38982 12.49808 4072 ft 230 kts 255°
2026-04-22 21:30 55.38776 12.47125 3911 ft 220 kts 283°
2026-04-22 21:30 55.39339 12.44691 3515 ft 215 kts 310°
2026-04-22 21:31 55.40308 12.42746 3391 ft 209 kts 313°
2026-04-22 21:31 55.41308 12.40892 3302 ft 208 kts 322°
2026-04-22 21:31 55.42342 12.39790 3223 ft 208 kts 337°
2026-04-22 21:31 55.43752 12.39231 3131 ft 210 kts 356°
2026-04-22 21:32 55.45188 12.39560 2906 ft 209 kts 15°
2026-04-22 21:32 55.46458 12.40753 2728 ft 206 kts 35°
2026-04-22 21:32 55.47526 12.42385 2580 ft 200 kts 36°
2026-04-22 21:32 55.48553 12.43956 2439 ft 192 kts 36°
2026-04-22 21:33 55.49542 12.45471 2298 ft 184 kts 36°
2026-04-22 21:33 55.50501 12.46941 2204 ft 182 kts 36°
2026-04-22 21:33 55.51420 12.48353 2110 ft 171 kts 35°
2026-04-22 21:33 55.52298 12.49699 1883 ft 168 kts 36°
2026-04-22 21:34 55.53161 12.51025 1642 ft 159 kts 34°
2026-04-22 21:34 55.53951 12.52245 1450 ft 144 kts 34°
2026-04-22 21:34 55.54677 12.53361 1286 ft 135 kts 33°
2026-04-22 21:34 55.55372 12.54428 1088 ft 131 kts 33°
2026-04-22 21:35 55.56058 12.55482 896 ft 132 kts 34°
2026-04-22 21:35 55.56752 12.56549 700 ft 133 kts 36°
2026-04-22 21:35 55.57457 12.57633 528 ft 134 kts 36°
2026-04-22 21:35 55.58158 12.58714 348 ft 133 kts 36°
2026-04-22 21:36 55.58856 12.59792 164 ft 133 kts 36°
2026-04-22 21:36 55.59552 12.60868 28 ft 131 kts 37°
2026-04-22 21:36 55.60131 12.61751 20 ft 86 kts 42°
2026-04-22 21:36 55.60455 12.62241 19 ft 36 kts 34°
2026-04-22 21:37 55.60533 12.62352 19 ft 8 kts 54°
2026-04-22 21:37 55.60611 12.62566 19 ft 30 kts 59°
2026-04-22 21:37 55.60726 12.62899 17 ft 31 kts 53°
2026-04-22 21:37 55.60900 12.63001 18 ft 24 kts 12°
2026-04-22 21:38 55.60989 12.63187 20 ft 22 kts 120°
2026-04-22 21:38 55.60881 12.63410 17 ft 26 kts 131°
2026-04-22 21:38 55.60758 12.63663 17 ft 28 kts 130°
2026-04-22 21:38 55.60695 12.63807 19 ft 2 kts 104°
2026-04-22 21:39 55.60691 12.63858 18 ft 7 kts 88°
2026-04-22 21:39 55.60732 12.63956 19 ft 13 kts 42°
2026-04-22 21:39 55.60822 12.64105 20 ft 22 kts 44°
2026-04-22 21:39 55.60963 12.64316 17 ft 31 kts 40°
2026-04-22 21:40 55.61148 12.64597 17 ft 39 kts 41°
2026-04-22 21:40 55.61373 12.64935 18 ft 45 kts 43°
2026-04-22 21:40 55.61564 12.65026 17 ft 22 kts 339°
2026-04-22 21:40 55.61692 12.64859 17 ft 24 kts 316°
2026-04-22 21:41 55.61858 12.64793 17 ft 26 kts 11°
2026-04-22 21:41 55.62022 12.64966 19 ft 29 kts 33°
2026-04-22 21:41 55.62195 12.65159 17 ft 21 kts 31°
2026-04-22 21:41 55.62334 12.65206 17 ft 22 kts
2026-04-22 21:42 55.62427 12.65146 17 ft 10 kts 267°
2026-04-22 21:42 55.62428 12.65054 18 ft 0 kts 270°
2026-04-22 21:42 55.62428 12.65051 18 ft 0 kts 270°